PIMOHWEATHER Station Historical Data
Daily Summary for March 13, 2020 Units:  Metric    English   Both
Daily Weekly Monthly Yearly
  High: Low: Average:
Temperature: 36.0 °C 25.0 °C 29.6 °C
Dew Point: 25.0 °C 21.0 °C 23.1 °C
Humidity: 84% 51% 70%
Wind Speed: 27km/h 0km/h 9.4km/h
Wind Gust: 32km/h - -
Wind- - South
Pressure: 1015.6 hPa 1010.5 hPa -
Precipitation: 0.00 mm    
 
 
Tabular Data for March 13, 2020
Time Temperature Dew Point Pressure Wind Wind Speed Wind Gust Humidity Rainfall Rate (Hourly) solar
00:04 28.0 °C 22.0 °C 1013.2 hPa ESE 4 km/h 4 km/h 71% 0.00 mm 0.00 W/m2
00:09 28.0 °C 23.0 °C 1013.2 hPa ESE 5 km/h 8 km/h 71% 0.00 mm 0.00 W/m2
00:14 28.0 °C 23.0 °C 1013.2 hPa ESE 4 km/h 4 km/h 71% 0.00 mm 0.00 W/m2
00:19 28.0 °C 23.0 °C 1013.2 hPa ENE 4 km/h 4 km/h 72% 0.00 mm 0.00 W/m2
00:24 28.0 °C 23.0 °C 1013.2 hPa East 5 km/h 8 km/h 72% 0.00 mm 0.00 W/m2
00:29 28.0 °C 23.0 °C 1012.9 hPa East 5 km/h 8 km/h 72% 0.00 mm 0.00 W/m2
00:34 28.0 °C 23.0 °C 1012.9 hPa ENE 5 km/h 8 km/h 72% 0.00 mm 0.00 W/m2
00:39 28.0 °C 23.0 °C 1013.2 hPa ESE 2 km/h 4 km/h 72% 0.00 mm 0.00 W/m2
00:44 28.0 °C 22.0 °C 1012.9 hPa East 1 km/h 4 km/h 72% 0.00 mm 0.00 W/m2
00:49 28.0 °C 22.0 °C 1012.9 hPa Calm     72% 0.00 mm 0.00 W/m2
00:54 28.0 °C 22.0 °C 1012.9 hPa Calm     73% 0.00 mm 0.00 W/m2
00:59 28.0 °C 22.0 °C 1012.9 hPa ESE 1 km/h 4 km/h 73% 0.00 mm 0.00 W/m2
01:04 28.0 °C 22.0 °C 1012.9 hPa East 1 km/h 4 km/h 73% 0.00 mm 0.00 W/m2
01:09 28.0 °C 22.0 °C 1012.9 hPa Calm   4 km/h 73% 0.00 mm 0.00 W/m2
01:14 28.0 °C 22.0 °C 1012.5 hPa Calm     73% 0.00 mm 0.00 W/m2
01:19 28.0 °C 22.0 °C 1012.9 hPa SSE 1 km/h 4 km/h 73% 0.00 mm 0.00 W/m2
01:24 28.0 °C 22.0 °C 1012.9 hPa NNE 4 km/h 4 km/h 73% 0.00 mm 0.00 W/m2
01:29 27.0 °C 22.0 °C 1012.9 hPa NNW 3 km/h 4 km/h 75% 0.00 mm 0.00 W/m2
01:34 27.0 °C 22.0 °C 1012.9 hPa North 3 km/h 4 km/h 75% 0.00 mm 0.00 W/m2
01:39 27.0 °C 22.0 °C 1012.9 hPa NNW 3 km/h 4 km/h 75% 0.00 mm 0.00 W/m2
01:44 27.0 °C 22.0 °C 1012.9 hPa NW 4 km/h 4 km/h 75% 0.00 mm 0.00 W/m2
01:49 27.0 °C 22.0 °C 1012.5 hPa NNW 4 km/h 4 km/h 76% 0.00 mm 0.00 W/m2
01:54 27.0 °C 22.0 °C 1012.9 hPa WNW 5 km/h 8 km/h 76% 0.00 mm 0.00 W/m2
01:59 27.0 °C 22.0 °C 1012.5 hPa North 4 km/h 8 km/h 76% 0.00 mm 0.00 W/m2
02:04 27.0 °C 22.0 °C 1012.5 hPa NW 4 km/h 8 km/h 76% 0.00 mm 0.00 W/m2
02:09 27.0 °C 22.0 °C 1012.5 hPa North 5 km/h 8 km/h 76% 0.00 mm 0.00 W/m2
02:14 27.0 °C 22.0 °C 1012.5 hPa North 5 km/h 8 km/h 76% 0.00 mm 0.00 W/m2
02:19 27.0 °C 22.0 °C 1012.5 hPa North 2 km/h 4 km/h 76% 0.00 mm 0.00 W/m2
02:24 27.0 °C 22.0 °C 1012.5 hPa North 4 km/h 4 km/h 76% 0.00 mm 0.00 W/m2
02:29 27.0 °C 22.0 °C 1012.5 hPa NW 5 km/h 8 km/h 76% 0.00 mm 0.00 W/m2
02:34 27.0 °C 22.0 °C 1012.5 hPa North 5 km/h 8 km/h 76% 0.00 mm 0.00 W/m2
02:39 27.0 °C 22.0 °C 1012.2 hPa NW 5 km/h 8 km/h 76% 0.00 mm 0.00 W/m2
02:44 27.0 °C 22.0 °C 1012.2 hPa Calm   4 km/h 76% 0.00 mm 0.00 W/m2
02:49 27.0 °C 22.0 °C 1012.5 hPa Calm     76% 0.00 mm 0.00 W/m2
02:54 27.0 °C 22.0 °C 1012.5 hPa Calm     76% 0.00 mm 0.00 W/m2
02:59 27.0 °C 22.0 °C 1012.5 hPa North 5 km/h 8 km/h 76% 0.00 mm 0.00 W/m2
03:04 27.0 °C 22.0 °C 1012.5 hPa North 9 km/h 12 km/h 77% 0.00 mm 0.00 W/m2
03:09 26.0 °C 22.0 °C 1012.5 hPa NNW 7 km/h 8 km/h 78% 0.00 mm 0.00 W/m2
03:14 26.0 °C 22.0 °C 1012.5 hPa North 5 km/h 8 km/h 78% 0.00 mm 0.00 W/m2
03:19 26.0 °C 23.0 °C 1012.5 hPa North 7 km/h 8 km/h 79% 0.00 mm 0.00 W/m2
03:24 26.0 °C 22.0 °C 1012.5 hPa North 6 km/h 8 km/h 79% 0.00 mm 0.00 W/m2
03:29 26.0 °C 22.0 °C 1012.5 hPa NNE 6 km/h 8 km/h 79% 0.00 mm 0.00 W/m2
03:34 26.0 °C 22.0 °C 1012.5 hPa NNE 8 km/h 8 km/h 79% 0.00 mm 0.00 W/m2
03:39 26.0 °C 22.0 °C 1012.5 hPa NNE 7 km/h 8 km/h 80% 0.00 mm 0.00 W/m2
03:44 26.0 °C 22.0 °C 1012.2 hPa NNE 9 km/h 12 km/h 80% 0.00 mm 0.00 W/m2
03:49 26.0 °C 22.0 °C 1012.5 hPa North 8 km/h 12 km/h 80% 0.00 mm 0.00 W/m2
03:54 26.0 °C 22.0 °C 1012.5 hPa NNE 9 km/h 12 km/h 80% 0.00 mm 0.00 W/m2
03:59 26.0 °C 22.0 °C 1012.5 hPa NNE 10 km/h 12 km/h 80% 0.00 mm 0.00 W/m2
04:04 26.0 °C 22.0 °C 1012.5 hPa NNE 9 km/h 12 km/h 80% 0.00 mm 0.00 W/m2
04:09 26.0 °C 22.0 °C 1012.5 hPa NNE 3 km/h 4 km/h 80% 0.00 mm 0.00 W/m2
04:14 26.0 °C 22.0 °C 1012.5 hPa NNE 6 km/h 8 km/h 81% 0.00 mm 0.00 W/m2
04:19 26.0 °C 22.0 °C 1012.5 hPa NNE 8 km/h 8 km/h 81% 0.00 mm 0.00 W/m2
04:24 26.0 °C 22.0 °C 1012.5 hPa North 6 km/h 8 km/h 81% 0.00 mm 0.00 W/m2
04:29 26.0 °C 22.0 °C 1012.5 hPa North 9 km/h 12 km/h 81% 0.00 mm 0.00 W/m2
04:34 26.0 °C 22.0 °C 1012.5 hPa North 5 km/h 8 km/h 81% 0.00 mm 0.00 W/m2
04:39 26.0 °C 22.0 °C 1012.5 hPa North 7 km/h 8 km/h 82% 0.00 mm 0.00 W/m2
04:44 26.0 °C 22.0 °C 1012.9 hPa North 9 km/h 12 km/h 82% 0.00 mm 0.00 W/m2
04:49 26.0 °C 22.0 °C 1012.9 hPa North 6 km/h 8 km/h 82% 0.00 mm 0.00 W/m2
04:54 26.0 °C 22.0 °C 1012.9 hPa North 8 km/h 8 km/h 82% 0.00 mm 0.00 W/m2
04:59 26.0 °C 22.0 °C 1012.9 hPa North 14 km/h 16 km/h 83% 0.00 mm 0.00 W/m2
05:04 26.0 °C 22.0 °C 1012.9 hPa North 6 km/h 8 km/h 83% 0.00 mm 0.00 W/m2
05:09 25.0 °C 22.0 °C 1012.9 hPa NNE 14 km/h 16 km/h 83% 0.00 mm 0.00 W/m2
05:14 25.0 °C 22.0 °C 1012.9 hPa NNE 6 km/h 12 km/h 83% 0.00 mm 0.00 W/m2
05:19 25.0 °C 22.0 °C 1012.9 hPa North 9 km/h 12 km/h 83% 0.00 mm 0.00 W/m2
05:24 25.0 °C 22.0 °C 1012.9 hPa North 10 km/h 12 km/h 84% 0.00 mm 0.00 W/m2
05:29 25.0 °C 22.0 °C 1012.9 hPa North 9 km/h 12 km/h 84% 0.00 mm 0.00 W/m2
05:34 25.0 °C 22.0 °C 1013.2 hPa North 9 km/h 12 km/h 84% 0.00 mm 0.00 W/m2
05:39 25.0 °C 22.0 °C 1013.2 hPa North 9 km/h 12 km/h 84% 0.00 mm 0.00 W/m2
05:44 25.0 °C 22.0 °C 1013.2 hPa NNE 7 km/h 12 km/h 84% 0.00 mm 0.00 W/m2
05:49 25.0 °C 22.0 °C 1013.2 hPa NNE 8 km/h 8 km/h 84% 0.00 mm 0.00 W/m2
05:54 25.0 °C 22.0 °C 1013.2 hPa NNW 9 km/h 12 km/h 84% 0.00 mm 0.00 W/m2
05:59 25.0 °C 22.0 °C 1013.6 hPa North 9 km/h 12 km/h 84% 0.00 mm 0.00 W/m2
06:04 25.0 °C 22.0 °C 1013.6 hPa North 6 km/h 8 km/h 84% 0.00 mm 0.91 W/m2
06:09 25.0 °C 22.0 °C 1013.6 hPa North 7 km/h 8 km/h 83% 0.00 mm 4.01 W/m2
06:14 25.0 °C 22.0 °C 1013.9 hPa North 7 km/h 8 km/h 83% 0.00 mm 8.15 W/m2
06:19 25.0 °C 22.0 °C 1013.9 hPa NNW 7 km/h 12 km/h 83% 0.00 mm 12.88 W/m2
06:24 25.0 °C 22.0 °C 1013.9 hPa North 7 km/h 12 km/h 83% 0.00 mm 19.35 W/m2
06:29 25.0 °C 22.0 °C 1013.9 hPa NNW 9 km/h 12 km/h 83% 0.00 mm 25.13 W/m2
06:34 25.0 °C 22.0 °C 1013.9 hPa North 7 km/h 8 km/h 83% 0.00 mm 28.02 W/m2
06:39 25.0 °C 22.0 °C 1013.9 hPa NW 8 km/h 8 km/h 83% 0.00 mm 32.28 W/m2
06:44 25.0 °C 22.0 °C 1014.2 hPa NNW 9 km/h 12 km/h 83% 0.00 mm 35.12 W/m2
06:49 25.0 °C 22.0 °C 1014.2 hPa North 10 km/h 12 km/h 83% 0.00 mm 38.77 W/m2
06:54 25.0 °C 22.0 °C 1014.6 hPa NNW 9 km/h 12 km/h 83% 0.00 mm 42.91 W/m2
06:59 25.0 °C 22.0 °C 1014.2 hPa North 10 km/h 12 km/h 83% 0.00 mm 106.79 W/m2
07:04 25.0 °C 22.0 °C 1014.2 hPa North 10 km/h 12 km/h 83% 0.00 mm 116.90 W/m2
07:09 25.0 °C 22.0 °C 1014.6 hPa North 10 km/h 12 km/h 83% 0.00 mm 125.76 W/m2
07:14 25.0 °C 22.0 °C 1014.2 hPa North 13 km/h 16 km/h 82% 0.00 mm 134.03 W/m2
07:19 26.0 °C 22.0 °C 1014.2 hPa North 11 km/h 12 km/h 82% 0.00 mm 143.57 W/m2
07:24 26.0 °C 22.0 °C 1014.6 hPa NNW 10 km/h 12 km/h 82% 0.00 mm 152.13 W/m2
07:29 26.0 °C 23.0 °C 1014.6 hPa North 10 km/h 12 km/h 81% 0.00 mm 160.97 W/m2
07:34 26.0 °C 23.0 °C 1014.6 hPa NNW 9 km/h 12 km/h 80% 0.00 mm 173.88 W/m2
07:39 27.0 °C 23.0 °C 1014.6 hPa NNW 10 km/h 12 km/h 80% 0.00 mm 185.09 W/m2
07:44 27.0 °C 23.0 °C 1014.9 hPa NNW 10 km/h 12 km/h 79% 0.00 mm 195.83 W/m2
07:49 27.0 °C 23.0 °C 1014.6 hPa North 9 km/h 12 km/h 78% 0.00 mm 202.14 W/m2
07:54 27.0 °C 23.0 °C 1014.9 hPa North 10 km/h 12 km/h 78% 0.00 mm 209.97 W/m2
07:59 28.0 °C 23.0 °C 1014.9 hPa North 8 km/h 8 km/h 78% 0.00 mm 224.56 W/m2
08:04 28.0 °C 23.0 °C 1014.9 hPa North 7 km/h 8 km/h 76% 0.00 mm 236.30 W/m2
08:09 29.0 °C 23.0 °C 1014.9 hPa North 6 km/h 8 km/h 75% 0.00 mm 248.93 W/m2
08:14 29.0 °C 23.0 °C 1014.9 hPa NNE 8 km/h 8 km/h 74% 0.00 mm 252.52 W/m2
08:19 29.0 °C 23.0 °C 1014.9 hPa NNW 5 km/h 8 km/h 74% 0.00 mm 259.49 W/m2
08:24 29.0 °C 24.0 °C 1014.9 hPa NW 8 km/h 8 km/h 73% 0.00 mm 270.68 W/m2
08:29 30.0 °C 24.0 °C 1014.9 hPa WSW 1 km/h 4 km/h 72% 0.00 mm 279.83 W/m2
08:34 31.0 °C 24.0 °C 1015.2 hPa South 3 km/h 4 km/h 69% 0.00 mm 288.05 W/m2
08:39 30.0 °C 24.0 °C 1015.6 hPa NW 10 km/h 12 km/h 71% 0.00 mm 291.47 W/m2
08:44 29.0 °C 24.0 °C 1015.6 hPa North 8 km/h 8 km/h 72% 0.00 mm 289.88 W/m2
08:49 29.0 °C 23.0 °C 1015.2 hPa North 7 km/h 12 km/h 71% 0.00 mm 294.24 W/m2
08:54 30.0 °C 24.0 °C 1015.6 hPa WNW 6 km/h 8 km/h 71% 0.00 mm 309.14 W/m2
08:59 30.0 °C 24.0 °C 1015.2 hPa North 6 km/h 8 km/h 69% 0.00 mm 314.79 W/m2
09:04 31.0 °C 24.0 °C 1015.2 hPa WNW 4 km/h 4 km/h 69% 0.00 mm 319.78 W/m2
09:09 32.0 °C 24.0 °C 1015.2 hPa SE 8 km/h 8 km/h 66% 0.00 mm 337.42 W/m2
09:14 32.0 °C 24.0 °C 1015.2 hPa SE 12 km/h 12 km/h 64% 0.00 mm 337.25 W/m2
09:19 32.0 °C 24.0 °C 1015.2 hPa ENE 7 km/h 8 km/h 64% 0.00 mm 348.58 W/m2
09:24 32.0 °C 24.0 °C 1015.2 hPa SE 11 km/h 12 km/h 63% 0.00 mm 367.32 W/m2
09:29 32.0 °C 24.0 °C 1015.2 hPa ENE 15 km/h 16 km/h 65% 0.00 mm 390.57 W/m2
09:34 31.0 °C 24.0 °C 1015.2 hPa SE 11 km/h 16 km/h 65% 0.00 mm 384.77 W/m2
09:39 31.0 °C 24.0 °C 1015.2 hPa SSE 13 km/h 16 km/h 67% 0.00 mm 411.53 W/m2
09:44 32.0 °C 25.0 °C 1015.2 hPa SSE 9 km/h 12 km/h 67% 0.00 mm 417.24 W/m2
09:49 32.0 °C 24.0 °C 1015.2 hPa ESE 9 km/h 12 km/h 63% 0.00 mm 428.64 W/m2
09:54 33.0 °C 24.0 °C 1015.2 hPa ENE 8 km/h 12 km/h 61% 0.00 mm 445.23 W/m2
09:59 33.0 °C 24.0 °C 1015.2 hPa ENE 10 km/h 12 km/h 60% 0.00 mm 456.51 W/m2
10:04 33.0 °C 24.0 °C 1015.2 hPa East 10 km/h 20 km/h 60% 0.00 mm 445.42 W/m2
10:09 33.0 °C 24.0 °C 1014.9 hPa SE 15 km/h 24 km/h 60% 0.00 mm 446.57 W/m2
10:14 33.0 °C 24.0 °C 1014.9 hPa SE 14 km/h 16 km/h 61% 0.00 mm 450.88 W/m2
10:19 33.0 °C 24.0 °C 1014.9 hPa SE 15 km/h 20 km/h 60% 0.00 mm 458.90 W/m2
10:24 33.0 °C 24.0 °C 1014.9 hPa East 14 km/h 16 km/h 61% 0.00 mm 332.11 W/m2
10:29 32.0 °C 24.0 °C 1014.9 hPa SE 20 km/h 24 km/h 69% 0.00 mm 180.15 W/m2
10:34 31.0 °C 24.0 °C 1014.9 hPa South 10 km/h 12 km/h 68% 0.00 mm 433.70 W/m2
10:39 31.0 °C 24.0 °C 1014.6 hPa West 13 km/h 16 km/h 70% 0.00 mm 444.98 W/m2
10:44 31.0 °C 24.0 °C 1014.9 hPa SW 8 km/h 12 km/h 69% 0.00 mm 448.92 W/m2
10:49 32.0 °C 25.0 °C 1014.6 hPa SSW 11 km/h 16 km/h 67% 0.00 mm 461.57 W/m2
10:54 33.0 °C 25.0 °C 1014.6 hPa South 5 km/h 8 km/h 65% 0.00 mm 497.78 W/m2
10:59 33.0 °C 25.0 °C 1014.6 hPa SSE 14 km/h 16 km/h 65% 0.00 mm 488.04 W/m2
11:04 33.0 °C 25.0 °C 1014.6 hPa South 10 km/h 16 km/h 64% 0.00 mm 496.73 W/m2
11:09 33.0 °C 25.0 °C 1014.6 hPa WNW 8 km/h 16 km/h 65% 0.00 mm 428.15 W/m2
11:14 32.0 °C 25.0 °C 1014.6 hPa WSW 7 km/h 12 km/h 66% 0.00 mm 485.74 W/m2
11:19 32.0 °C 25.0 °C 1014.6 hPa South 13 km/h 16 km/h 66% 0.00 mm 178.68 W/m2
11:24 31.0 °C 24.0 °C 1014.6 hPa South 9 km/h 12 km/h 67% 0.00 mm 325.51 W/m2
11:29 31.0 °C 25.0 °C 1014.2 hPa NW 6 km/h 8 km/h 68% 0.00 mm 446.67 W/m2
11:34 31.0 °C 25.0 °C 1014.2 hPa South 7 km/h 12 km/h 68% 0.00 mm 198.99 W/m2
11:39 31.0 °C 24.0 °C 1014.2 hPa NNE 6 km/h 8 km/h 68% 0.00 mm 489.73 W/m2
11:44 32.0 °C 25.0 °C 1014.2 hPa West 10 km/h 12 km/h 68% 0.00 mm 510.50 W/m2
11:49 32.0 °C 25.0 °C 1014.2 hPa South 9 km/h 12 km/h 67% 0.00 mm 510.97 W/m2
11:54 32.0 °C 25.0 °C 1013.9 hPa East 10 km/h 16 km/h 66% 0.00 mm 492.42 W/m2
11:59 32.0 °C 25.0 °C 1014.2 hPa South 10 km/h 12 km/h 67% 0.00 mm 501.92 W/m2
12:04 33.0 °C 25.0 °C 1013.9 hPa South 10 km/h 12 km/h 66% 0.00 mm 507.47 W/m2
12:09 32.0 °C 25.0 °C 1013.6 hPa South 17 km/h 20 km/h 65% 0.00 mm 498.81 W/m2
12:14 32.0 °C 25.0 °C 1013.6 hPa SW 11 km/h 16 km/h 65% 0.00 mm 515.45 W/m2
12:19 33.0 °C 25.0 °C 1013.2 hPa SSW 13 km/h 16 km/h 64% 0.00 mm 512.93 W/m2
12:24 33.0 °C 25.0 °C 1013.2 hPa SSW 13 km/h 16 km/h 63% 0.00 mm 514.30 W/m2
12:29 33.0 °C 25.0 °C 1013.2 hPa SSW 12 km/h 16 km/h 63% 0.00 mm 518.82 W/m2
12:34 33.0 °C 25.0 °C 1013.2 hPa WSW 15 km/h 20 km/h 62% 0.00 mm 514.88 W/m2
12:39 33.0 °C 25.0 °C 1012.9 hPa SSW 9 km/h 12 km/h 63% 0.00 mm 510.99 W/m2
12:44 33.0 °C 25.0 °C 1012.9 hPa SSE 9 km/h 12 km/h 62% 0.00 mm 530.52 W/m2
12:49 33.0 °C 25.0 °C 1012.9 hPa NW 10 km/h 16 km/h 63% 0.00 mm 535.51 W/m2
12:54 33.0 °C 25.0 °C 1012.9 hPa NNW 10 km/h 16 km/h 63% 0.00 mm 523.23 W/m2
12:59 33.0 °C 24.0 °C 1012.9 hPa West 5 km/h 8 km/h 62% 0.00 mm 494.26 W/m2
13:04 33.0 °C 25.0 °C 1012.5 hPa West 15 km/h 20 km/h 63% 0.00 mm 548.87 W/m2
13:09 33.0 °C 25.0 °C 1012.9 hPa NW 18 km/h 20 km/h 64% 0.00 mm 533.33 W/m2
13:14 33.0 °C 25.0 °C 1012.5 hPa WSW 11 km/h 12 km/h 64% 0.00 mm 539.72 W/m2
13:19 33.0 °C 25.0 °C 1012.2 hPa North 12 km/h 16 km/h 62% 0.00 mm 527.41 W/m2
13:24 33.0 °C 25.0 °C 1012.2 hPa West 9 km/h 12 km/h 62% 0.00 mm 507.91 W/m2
13:29 33.0 °C 25.0 °C 1012.2 hPa NW 13 km/h 16 km/h 62% 0.00 mm 517.65 W/m2
13:34 34.0 °C 25.0 °C 1011.9 hPa South 9 km/h 12 km/h 60% 0.00 mm 525.38 W/m2
13:39 34.0 °C 25.0 °C 1011.9 hPa South 5 km/h 12 km/h 60% 0.00 mm 506.83 W/m2
13:44 34.0 °C 25.0 °C 1011.9 hPa West 8 km/h 12 km/h 59% 0.00 mm 511.43 W/m2
13:49 34.0 °C 24.0 °C 1011.9 hPa SSE 5 km/h 8 km/h 59% 0.00 mm 515.47 W/m2
13:54 35.0 °C 24.0 °C 1011.5 hPa SE 14 km/h 16 km/h 55% 0.00 mm 525.55 W/m2
13:59 35.0 °C 24.0 °C 1011.5 hPa SE 13 km/h 20 km/h 54% 0.00 mm 522.44 W/m2
14:04 35.0 °C 24.0 °C 1011.5 hPa SE 17 km/h 20 km/h 53% 0.00 mm 501.52 W/m2
14:09 35.0 °C 24.0 °C 1011.5 hPa ESE 18 km/h 20 km/h 52% 0.00 mm 482.12 W/m2
14:14 35.0 °C 24.0 °C 1011.2 hPa SE 22 km/h 24 km/h 53% 0.00 mm 482.98 W/m2
14:19 35.0 °C 24.0 °C 1011.2 hPa SE 25 km/h 28 km/h 53% 0.00 mm 478.09 W/m2
14:24 35.0 °C 24.0 °C 1010.8 hPa SE 22 km/h 28 km/h 52% 0.00 mm 472.07 W/m2
14:29 35.0 °C 24.0 °C 1011.2 hPa ESE 23 km/h 28 km/h 52% 0.00 mm 471.63 W/m2
14:34 35.0 °C 24.0 °C 1010.8 hPa SE 19 km/h 24 km/h 52% 0.00 mm 471.48 W/m2
14:39 36.0 °C 23.0 °C 1011.2 hPa SE 12 km/h 16 km/h 51% 0.00 mm 462.28 W/m2
14:44 36.0 °C 23.0 °C 1010.8 hPa SE 26 km/h 32 km/h 53% 0.00 mm 459.51 W/m2
14:49 35.0 °C 23.0 °C 1010.8 hPa SE 22 km/h 24 km/h 54% 0.00 mm 445.64 W/m2
14:54 35.0 °C 24.0 °C 1010.8 hPa SE 27 km/h 28 km/h 52% 0.00 mm 442.39 W/m2
14:59 35.0 °C 23.0 °C 1010.8 hPa ESE 19 km/h 28 km/h 52% 0.00 mm 438.30 W/m2
15:04 35.0 °C 23.0 °C 1010.5 hPa SE 25 km/h 32 km/h 52% 0.00 mm 430.55 W/m2
15:09 35.0 °C 23.0 °C 1010.5 hPa ESE 19 km/h 24 km/h 52% 0.00 mm 429.22 W/m2
15:14 35.0 °C 23.0 °C 1010.8 hPa ESE 16 km/h 20 km/h 51% 0.00 mm 426.56 W/m2
15:19 35.0 °C 23.0 °C 1010.5 hPa SE 22 km/h 28 km/h 51% 0.00 mm 422.15 W/m2
15:24 35.0 °C 23.0 °C 1010.5 hPa SE 25 km/h 28 km/h 52% 0.00 mm 419.12 W/m2
15:29 35.0 °C 23.0 °C 1010.5 hPa ESE 19 km/h 20 km/h 52% 0.00 mm 407.72 W/m2
15:34 35.0 °C 23.0 °C 1010.5 hPa SE 18 km/h 24 km/h 51% 0.00 mm 403.41 W/m2
15:39 35.0 °C 23.0 °C 1010.5 hPa ESE 23 km/h 32 km/h 52% 0.00 mm 400.79 W/m2
15:44 34.0 °C 23.0 °C 1010.5 hPa SE 22 km/h 32 km/h 52% 0.00 mm 392.55 W/m2
15:49 34.0 °C 23.0 °C 1010.5 hPa ESE 23 km/h 28 km/h 52% 0.00 mm 382.93 W/m2
15:54 35.0 °C 23.0 °C 1010.5 hPa ESE 14 km/h 24 km/h 51% 0.00 mm 376.84 W/m2
15:56 34.0 °C 23.0 °C 1010.5 hPa SE 20 km/h 24 km/h 51% 0.00 mm 371.53 W/m2
18:39 31.0 °C 21.0 °C 1010.8 hPa SE 9 km/h 12 km/h 54% 0.00 mm 0.00 W/m2
18:44 31.0 °C 21.0 °C 1010.8 hPa ENE 10 km/h 16 km/h 54% 0.00 mm 0.00 W/m2
18:49 31.0 °C 21.0 °C 1010.8 hPa SE 10 km/h 12 km/h 54% 0.00 mm 0.00 W/m2
18:53 31.0 °C 21.0 °C 1011.2 hPa ESE 10 km/h 12 km/h 55% 0.00 mm 0.00 W/m2
23:49 28.0 °C 23.0 °C 1012.2 hPa SSE 4 km/h 4 km/h 72% 0.00 mm 0.00 W/m2
23:54 28.0 °C 23.0 °C 1012.2 hPa SE 2 km/h 4 km/h 73% 0.00 mm 0.00 W/m2
23:59 28.0 °C 23.0 °C 1012.2 hPa Calm     72% 0.00 mm 0.00 W/m2
PIMOHWEATHER Philippines
Compliments of Weather Underground - 2 mb